Wind_Speed
9 9 10 9 10 11 11 11 11 12 12 12 13 13 14 12 9 9 7 7 9 11 13 9 9 9 5 10 4 6 3 3 3 8 2 26 14 22 22 26 23 15 31 31 27
9 10 10 11 11 11 11 12 12 13 13 13 13 14 15 15 11 12 7 9 10 14 12 7 8 10 7 11 6 6 4 5 4 9 3 15 28 15 20 21 26 30 29 27 25
10 11 11 12 12 12 13 13 13 13 13 13 13 13 15 15 10 8 10 11 13 12 10 10 9 13 17 7 2 2 6 8 19 16 24 32 35 18 5 11 23 26 26 27 21
12 12 13 13 14 14 14 14 14 13 13 13 13 12 15 12 3 3 5 11 11 9 10 11 10 12 9 5 9 6 24 27 14 20 12 33 13 12 15 20 27 27 28 26 22
13 13 14 14 15 15 15 15 15 14 13 13 13 13 13 7 16 4 3 5 6 7 10 8 16 16 9 8 18 11 27 33 30 21 28 28 37 5 14 18 23 25 26 24 22
14 14 14 15 16 16 16 15 15 14 13 13 13 13 13 7 5 5 7 2 1 6 6 11 15 20 24 19 10 25 26 13 17 16 29 24 10 22 3 13 16 21 21 21 21
15 15 15 15 16 16 17 16 15 14 13 12 12 13 14 18 3 4 5 4 6 13 18 18 18 19 18 11 20 24 10 8 4 13 9 31 3 14 20 12 5 13 18 21 20
15 16 16 16 16 16 17 16 15 13 12 12 11 12 12 8 7 11 10 13 13 11 14 16 12 12 14 23 25 15 5 2 6 3 15 10 7 14 22 20 12 7 22 25 22
15 16 16 16 16 16 16 16 15 13 11 12 9 6 13 6 17 18 16 15 14 16 10 13 13 9 19 7 7 8 5 11 11 23 14 4 5 21 24 19 17 22 20 26 25
15 16 16 15 15 16 14 14 13 13 13 12 12 8 12 15 13 12 11 15 15 9 15 14 11 5 5 3 5 4 6 13 18 16 17 11 10 10 30 31 27 24 20 27 25
16 16 15 14 13 14 10 9 8 2 7 9 8 9 22 9 7 6 9 10 10 12 7 15 4 7 11 12 6 8 10 11 7 17 6 15 14 15 24 24 19 12 19 20 25
16 16 15 13 11 9 8 3 7 8 13 19 25 28 30 19 6 15 13 18 13 8 12 7 7 13 13 16 12 7 8 9 13 23 4 15 17 10 17 14 14 27 39 34 28
15 15 15 12 9 4 5 6 10 9 7 16 25 24 27 21 15 21 16 20 11 9 11 9 14 15 16 12 12 6 15 9 18 8 18 7 8 8 1 25 32 44 45 22 39
14 14 13 9 5 3 4 3 7 7 3 7 9 20 28 26 20 23 22 17 9 13 10 9 17 13 10 10 10 5 7 10 11 15 9 6 4 4 7 4 15 28 26 31 41
14 13 9 10 7 6 3 0 8 3 3 7 17 12 23 25 21 20 24 20 10 10 7 10 10 9 7 7 4 5 10 8 6 11 2 5 4 2 4 5 6 6 13 36 38
14 14 10 10 11 4 8 8 6 0 6 6 5 6 8 19 20 25 21 20 13 11 11 9 24 5 9 8 7 8 8 7 5 2 4 6 2 4 6 9 5 14 23 39 41
15 14 13 13 8 1 1 4 0 4 5 6 7 10 11 9 11 14 12 8 7 3 6 10 10 8 6 6 5 5 2 3 3 4 5 6 7 7 3 5 7 11 24 32 37
15 15 13 14 13 4 1 1 5 7 13 15 14 11 13 11 11 14 7 8 9 9 4 7 8 8 8 9 9 9 8 6 6 3 4 8 3 3 2 7 8 14 20 30 37
14 12 13 8 14 10 3 4 6 6 9 10 11 11 7 10 10 12 12 9 10 11 8 3 9 8 13 8 7 10 4 10 2 3 2 4 6 3 17 14 9 6 17 28 46
16 12 14 5 7 11 4 5 6 15 15 8 7 8 6 7 5 8 11 13 12 12 14 10 6 10 13 12 10 8 5 2 3 3 5 1 0 4 4 4 11 22 13 22 31
13 5 7 20 13 11 4 7 10 23 24 5 7 9 9 9 13 14 10 8 15 14 10 10 7 16 6 5 7 2 5 3 3 4 5 3 6 7 10 8 15 12 28 18 23
4 4 14 14 8 7 7 6 13 20 4 2 5 8 7 9 10 11 11 4 14 19 11 8 7 6 8 9 8 8 6 7 5 9 2 5 6 9 8 14 12 23 45 13 12
4 10 8 15 4 7 12 16 23 18 5 2 4 7 8 6 6 9 9 15 14 9 5 3 3 0 10 9 7 7 8 5 3 3 4 5 3 14 25 25 21 32 44 15 16
5 3 5 15 18 8 8 11 14 6 4 12 8 12 5 7 6 8 9 10 26 4 6 5 2 4 7 8 2 8 7 4 2 3 5 6 8 7 21 23 33 48 9 11 12
5 5 9 4 7 8 9 10 12 3 8 3 4 7 6 4 7 8 9 9 19 15 5 3 1 4 9 9 9 8 8 5 9 7 4 7 7 10 13 21 30 19 20 11 12
6 6 12 14 3 9 3 4 8 9 5 7 6 7 8 6 6 10 8 7 3 9 9 6 3 1 6 9 11 14 14 5 9 3 5 7 1 5 11 14 20 17 8 6 14
11 9 7 11 6 1 4 6 9 10 8 8 7 6 8 9 17 19 17 13 8 4 5 5 3 2 5 7 9 7 8 9 5 4 9 5 10 7 6 9 22 16 11 8 14
Wind_Direction
346 345 343 346 342 340 338 339 341 338 337 338 335 330 328 321 302 271 238 263 266 290 309 318 326 354 313 275 271 142 76 267 174 218 184 109 113 105 95 79 86 114 145 148 148
337 336 337 337 335 331 333 334 338 336 336 335 332 326 326 322 310 262 236 260 276 285 290 303 314 293 234 90 96 88 130 255 110 355 309 94 52 14 116 100 93 102 128 141 150
329 328 331 329 326 326 328 330 332 333 334 333 327 323 322 326 318 251 232 251 275 273 268 260 264 306 293 170 180 175 219 215 237 221 236 93 106 285 226 128 138 136 140 149 156
322 323 323 322 321 323 324 327 329 330 331 330 325 324 320 317 336 178 216 260 267 261 253 249 289 281 277 251 177 319 272 258 254 223 130 69 94 237 251 152 151 148 151 156 165
316 316 316 317 316 319 319 322 323 326 327 326 324 323 328 313 261 266 293 307 264 245 243 256 272 273 262 282 171 217 250 257 242 171 107 105 73 326 4 116 142 149 157 161 168
311 309 311 312 312 313 312 314 317 320 322 321 321 321 322 279 223 275 293 292 223 270 277 263 266 277 278 279 265 219 241 291 164 151 118 112 156 167 155 89 133 153 165 169 173
305 307 307 308 308 307 306 308 310 313 315 313 315 313 301 261 252 259 299 305 276 279 274 274 298 268 307 320 308 312 239 307 289 142 113 117 86 161 192 143 156 179 178 183 176
304 305 306 304 305 303 303 304 304 304 306 304 305 307 278 260 234 236 255 258 259 260 265 284 313 323 301 293 293 296 68 5 304 321 165 73 230 229 207 183 190 238 192 185 177
303 303 303 304 305 302 302 301 299 295 292 286 297 311 271 278 229 249 229 243 247 239 256 271 276 296 294 293 320 2 56 10 335 324 310 153 197 229 208 200 191 218 246 177 174
303 303 302 303 305 304 306 303 298 287 277 278 255 288 262 234 251 235 225 231 264 291 233 235 252 244 290 288 260 98 74 354 311 288 306 293 238 193 197 203 199 206 241 168 176
303 302 300 301 305 310 318 328 350 12 329 237 256 230 291 247 274 233 222 235 226 266 279 266 190 243 243 254 229 155 104 230 265 260 313 269 265 183 184 192 203 65 130 167 191
303 301 298 297 300 304 301 341 16 329 297 276 265 266 264 273 266 239 225 235 212 226 250 280 232 235 234 252 246 172 137 225 241 256 251 276 278 197 160 185 178 177 169 202 203
305 303 300 298 294 274 285 293 326 350 276 285 256 247 249 248 229 259 225 225 233 220 238 221 246 226 230 238 264 244 159 187 244 235 286 268 297 86 44 135 179 186 193 204 186
306 305 303 295 268 232 311 17 316 329 299 265 227 242 235 235 240 240 251 214 229 242 246 230 262 265 257 220 236 254 258 218 240 154 209 165 248 66 153 238 170 194 200 184 182
306 301 301 291 255 222 336 35 331 313 301 248 224 202 205 209 232 226 234 245 219 248 242 259 256 273 283 262 304 259 289 294 311 314 262 308 89 238 128 251 239 259 260 201 187
303 299 290 275 249 197 317 347 314 213 240 260 131 133 174 217 228 254 210 235 222 251 276 252 266 271 250 257 234 258 269 310 331 352 359 295 209 222 184 210 256 223 251 173 166
300 291 277 252 219 181 3 297 183 221 220 267 174 178 194 223 216 238 204 210 201 240 273 294 280 264 276 322 293 274 16 333 349 323 215 300 15 254 226 222 186 176 138 150 155
299 286 265 251 225 216 8 312 234 219 245 288 308 300 200 193 229 219 215 192 212 232 258 216 288 248 233 208 215 240 170 163 210 204 264 343 271 193 63 108 87 144 154 152 133
306 291 266 239 207 175 249 218 199 246 250 261 318 308 275 199 201 197 220 210 213 192 218 259 265 283 224 200 192 269 180 222 203 285 100 232 333 159 30 14 356 168 155 147 149
313 292 246 149 163 175 217 253 250 268 281 324 324 296 244 285 281 206 199 219 226 216 190 246 281 281 306 191 213 185 214 298 335 259 286 49 296 218 52 358 38 2 107 119 137
317 289 148 168 167 196 215 234 246 266 281 288 316 329 340 337 338 311 220 218 214 237 208 215 161 273 15 183 174 258 265 267 143 142 181 181 245 196 194 120 90 240 289 114 122
318 266 178 172 177 207 234 241 256 275 264 316 303 297 299 318 320 316 308 175 285 211 230 229 172 251 242 279 248 192 215 186 131 281 130 166 270 148 72 46 145 215 286 125 131
289 275 191 189 216 231 236 244 257 262 250 233 288 258 295 296 341 328 343 337 14 33 53 310 356 324 329 337 337 190 239 210 193 140 246 171 275 92 90 74 50 291 291 78 109
283 271 173 210 242 293 289 281 246 222 328 305 319 326 310 330 306 297 331 330 329 43 34 57 90 159 206 226 35 314 267 238 114 125 229 257 120 90 118 136 161 218 74 60 106
242 272 348 208 227 230 266 302 316 179 205 260 307 292 302 337 324 305 319 336 342 10 312 98 29 1 311 311 322 280 230 282 331 258 186 214 154 163 167 149 208 127 136 129 135
300 342 332 298 191 199 230 359 315 310 168 192 228 268 264 273 249 286 330 15 356 343 360 338 273 309 292 311 315 310 307 224 228 349 18 124 141 220 201 151 154 135 111 140 167
354 303 321 289 310 312 230 203 242 278 8 335 341 317 266 25 346 325 321 321 310 327 324 343 26 16 273 300 315 314 275 283 225 192 143 260 224 163 242 159 150 167 175 148 98
Height
1545 1544 1542 1540 1539 1537 1536 1534 1532 1530 1529 1526 1524 1521 1519 1518 1516 1514 1514 1515 1515 1514 1513 1513 1512 1514 1516 1516 1518 1518 1529 1533 1518 1520 1503 1498 1504 1508 1510 1512 1515 1514 1518 1528 1534
1545 1544 1542 1541 1539 1537 1535 1533 1531 1530 1528 1526 1523 1520 1518 1516 1515 1512 1512 1513 1513 1513 1512 1511 1511 1515 1517 1514 1512 1510 1528 1521 1506 1514 1509 1507 1518 1522 1512 1517 1521 1522 1527 1531 1536
1544 1542 1541 1540 1539 1537 1535 1533 1531 1529 1527 1525 1523 1520 1517 1515 1514 1510 1509 1511 1511 1511 1511 1511 1510 1512 1514 1515 1512 1507 1517 1504 1505 1508 1506 1508 1517 1529 1521 1518 1520 1523 1528 1531 1536
1542 1540 1539 1538 1537 1535 1533 1531 1529 1527 1526 1524 1521 1519 1516 1515 1516 1510 1510 1510 1509 1509 1509 1510 1510 1512 1510 1510 1511 1514 1502 1499 1495 1502 1508 1517 1529 1521 1522 1514 1515 1521 1526 1530 1534
1541 1539 1538 1536 1535 1532 1530 1529 1527 1525 1524 1522 1520 1517 1516 1514 1510 1509 1509 1507 1507 1507 1508 1508 1510 1509 1507 1503 1508 1511 1499 1494 1493 1496 1506 1506 1512 1531 1523 1518 1521 1523 1526 1528 1531
1539 1538 1536 1534 1532 1530 1529 1527 1525 1523 1522 1520 1518 1516 1515 1515 1509 1508 1508 1507 1506 1506 1506 1507 1508 1506 1502 1501 1501 1496 1496 1486 1487 1491 1500 1505 1513 1506 1515 1521 1527 1529 1531 1530 1532
1537 1536 1534 1532 1530 1528 1527 1525 1524 1522 1521 1519 1517 1515 1513 1508 1507 1507 1506 1506 1505 1505 1504 1504 1506 1504 1501 1498 1494 1492 1493 1487 1486 1489 1505 1498 1514 1506 1505 1514 1522 1529 1530 1531 1532
1536 1534 1532 1530 1528 1526 1524 1523 1521 1520 1519 1517 1516 1514 1509 1504 1505 1506 1506 1506 1505 1505 1504 1503 1503 1501 1502 1499 1493 1493 1493 1507 1490 1487 1497 1499 1524 1504 1506 1509 1512 1521 1524 1527 1529
1533 1531 1530 1527 1525 1523 1521 1520 1518 1517 1516 1516 1515 1514 1506 1502 1502 1502 1503 1504 1502 1503 1502 1501 1502 1502 1501 1504 1509 1501 1523 1516 1504 1489 1491 1495 1512 1499 1504 1503 1506 1514 1521 1524 1526
1530 1529 1527 1525 1524 1521 1519 1517 1515 1514 1514 1514 1513 1517 1502 1498 1498 1499 1500 1501 1501 1500 1501 1501 1501 1503 1504 1510 1536 1520 1523 1516 1511 1494 1493 1496 1497 1500 1495 1499 1496 1507 1519 1522 1526
1528 1526 1524 1523 1522 1520 1518 1515 1516 1515 1512 1510 1507 1503 1498 1498 1498 1498 1498 1500 1501 1501 1503 1497 1507 1516 1506 1498 1498 1502 1506 1514 1509 1485 1499 1495 1492 1487 1492 1497 1500 1517 1519 1522 1527
1526 1524 1522 1521 1520 1519 1518 1518 1519 1520 1510 1504 1501 1500 1495 1498 1496 1495 1497 1499 1499 1504 1498 1502 1511 1495 1491 1490 1492 1500 1509 1516 1504 1493 1500 1492 1490 1477 1491 1505 1516 1511 1504 1501 1514
1524 1521 1519 1518 1518 1518 1517 1517 1517 1517 1513 1496 1493 1493 1491 1494 1493 1491 1494 1494 1495 1499 1497 1505 1493 1484 1486 1489 1492 1494 1507 1505 1503 1494 1491 1494 1494 1493 1496 1481 1490 1498 1493 1494 1501
1522 1520 1518 1517 1518 1515 1516 1517 1518 1516 1520 1494 1483 1481 1487 1488 1487 1487 1488 1491 1491 1495 1491 1492 1480 1480 1482 1486 1484 1500 1482 1483 1487 1506 1523 1483 1531 1501 1493 1490 1490 1493 1492 1488 1494
1520 1518 1517 1516 1515 1514 1515 1514 1515 1516 1543 1474 1466 1473 1476 1482 1478 1482 1483 1486 1488 1488 1487 1493 1483 1483 1484 1481 1476 1489 1477 1482 1480 1492 1488 1493 1517 1506 1496 1495 1483 1481 1485 1490 1492
1517 1516 1515 1514 1512 1514 1514 1513 1514 1525 1533 1478 1468 1471 1476 1477 1477 1478 1481 1481 1482 1484 1481 1482 1473 1475 1476 1472 1473 1475 1480 1483 1483 1498 1530 1506 1513 1515 1503 1488 1480 1479 1479 1482 1493
1515 1513 1511 1510 1510 1511 1512 1513 1524 1529 1484 1478 1474 1469 1473 1477 1476 1476 1479 1483 1493 1500 1501 1485 1478 1470 1471 1478 1473 1477 1492 1534 1536 1539 1544 1503 1507 1503 1478 1477 1475 1478 1476 1484 1494
1511 1509 1507 1506 1508 1510 1511 1514 1529 1493 1489 1464 1468 1468 1472 1469 1473 1473 1477 1486 1479 1485 1498 1508 1511 1476 1469 1476 1487 1487 1495 1532 1543 1544 1530 1494 1512 1496 1474 1478 1476 1476 1478 1487 1499
1507 1504 1502 1502 1505 1509 1512 1522 1508 1491 1474 1474 1469 1474 1469 1463 1467 1470 1475 1479 1474 1476 1499 1499 1496 1463 1464 1464 1470 1485 1496 1481 1507 1500 1523 1513 1498 1486 1480 1489 1482 1478 1479 1486 1491
1504 1502 1498 1501 1503 1508 1511 1510 1493 1481 1476 1474 1485 1472 1474 1468 1470 1471 1474 1464 1468 1465 1467 1478 1501 1468 1458 1459 1463 1472 1471 1502 1509 1531 1537 1515 1510 1508 1496 1492 1481 1488 1482 1485 1492
1504 1502 1495 1499 1504 1507 1510 1500 1489 1482 1480 1478 1479 1480 1478 1477 1473 1471 1465 1457 1457 1459 1460 1468 1484 1476 1465 1468 1476 1477 1485 1482 1492 1505 1531 1539 1522 1486 1489 1485 1482 1497 1497 1485 1492
1505 1502 1497 1499 1503 1500 1500 1491 1485 1479 1478 1478 1477 1477 1479 1477 1479 1473 1463 1454 1451 1451 1463 1459 1475 1493 1480 1460 1457 1460 1471 1479 1513 1515 1509 1517 1511 1477 1499 1497 1497 1489 1506 1489 1490
1504 1500 1497 1498 1501 1497 1490 1486 1482 1479 1476 1477 1477 1475 1474 1480 1489 1472 1465 1454 1452 1450 1463 1460 1479 1500 1494 1477 1460 1465 1464 1466 1478 1488 1502 1518 1510 1499 1503 1505 1507 1513 1513 1491 1490
1505 1498 1494 1494 1491 1492 1491 1483 1479 1475 1476 1478 1478 1477 1476 1478 1476 1478 1471 1460 1457 1457 1457 1459 1473 1489 1510 1491 1469 1480 1467 1463 1478 1503 1498 1493 1499 1505 1503 1503 1507 1506 1493 1490 1498
1503 1494 1493 1492 1489 1489 1487 1482 1478 1475 1476 1478 1480 1481 1481 1486 1484 1481 1473 1468 1463 1461 1457 1461 1481 1474 1475 1467 1466 1469 1468 1466 1473 1480 1491 1491 1489 1497 1490 1487 1504 1485 1485 1491 1498
1502 1498 1491 1486 1481 1482 1483 1482 1482 1476 1477 1479 1483 1479 1479 1485 1484 1486 1479 1479 1476 1469 1469 1465 1483 1471 1481 1469 1468 1471 1462 1463 1463 1468 1478 1485 1485 1478 1481 1475 1480 1479 1489 1496 1502
1503 1499 1497 1487 1483 1482 1483 1482 1480 1478 1479 1478 1480 1481 1480 1482 1480 1478 1477 1475 1475 1476 1478 1477 1481 1485 1496 1476 1476 1489 1469 1462 1461 1461 1461 1486 1474 1473 1477 1473 1477 1484 1488 1488 1489